Time[GMT],current_speed[cm/s](2m),current_direction[angular_degrees](2m),temperature[C](2m),current_u[cm/s](2m),current_v[cm/s](2m),signal_strength[db](2m),tilt[degrees](2m)
2019-02-09 15:00,20.81,117.4,1.72,18.48,-9.58,-7.69,16.68
2019-02-09 16:00,9.88,56.6,1.77,8.25,5.43,-7.89,12.04
2019-02-09 17:00,3.44,100.7,1.78,3.38,-0.64,-2.22,17.35
2019-02-09 18:00,22.08,157.6,1.85,8.41,-20.41,-6.23,13.27
2019-02-09 19:00,26.72,180.2,1.80,-0.09,-26.72,-3.98,14.97
2019-02-09 20:00,26.56,190.2,1.76,-4.70,-26.14,-9.71,15.25
2019-02-09 21:00,37.30,196.9,1.77,-10.84,-35.69,-15.39,15.70
2019-02-09 22:00,40.20,195.1,1.80,-10.47,-38.81,-14.22,15.69
2019-02-09 23:00,22.51,178.7,1.85,0.51,-22.50,-28.10,11.79
2019-02-10 00:00,20.59,189.0,1.88,-3.22,-20.34,-18.26,10.08
2019-02-10 01:00,12.30,175.2,1.93,1.03,-12.26,-12.87,11.52
2019-02-10 02:00,5.50,65.8,1.95,5.02,2.25,-17.30,7.59
2019-02-10 03:00,13.62,17.1,1.94,4.00,13.02,-32.00,7.00
2019-02-10 04:00,16.01,22.9,1.85,6.23,14.75,-28.54,7.87
2019-02-10 05:00,16.93,25.6,1.84,7.32,15.27,-24.94,6.89
2019-02-10 06:00,10.39,146.8,1.77,5.69,-8.69,-35.65,5.91
2019-02-10 07:00,3.42,125.0,1.82,2.80,-1.96,-28.39,5.55
2019-02-10 08:00,12.87,206.1,1.80,-5.66,-11.56,-33.16,5.34
2019-02-10 09:00,17.63,194.9,1.80,-4.53,-17.04,-34.68,9.05
2019-02-10 10:00,20.50,173.7,1.75,2.25,-20.38,-30.39,6.67
2019-02-10 11:00,21.03,187.1,1.68,-2.60,-20.87,-27.68,7.62
2019-02-10 12:00,14.92,147.6,1.65,7.99,-12.60,-30.56,7.46
2019-02-10 13:00,2.58,43.1,1.65,1.76,1.89,-27.15,7.85
2019-02-10 14:00,8.56,329.8,1.67,-4.31,7.40,-22.58,8.48
2019-02-10 15:00,14.19,24.0,1.71,5.77,12.97,-31.46,8.09
2019-02-10 16:00,12.19,19.8,1.74,4.12,11.47,-17.23,7.18
2019-02-10 17:00,15.50,49.0,1.91,11.70,10.17,-29.99,6.23
2019-02-10 18:00,5.45,156.7,1.85,2.16,-5.01,-28.57,7.04
2019-02-10 19:00,20.08,178.3,1.86,0.60,-20.07,-30.85,7.43
2019-02-10 20:00,15.97,225.7,1.83,-11.43,-11.15,-24.39,7.78
2019-02-10 22:00,25.83,182.2,1.61,-0.99,-25.81,-33.53,6.00
2019-02-10 23:00,23.48,164.2,1.61,6.39,-22.59,-31.92,5.88
2019-02-11 00:00,15.77,204.5,1.59,-6.54,-14.35,-33.59,4.46
2019-02-11 01:00,,,,,,,
2019-02-11 02:00,6.38,283.7,1.72,-6.20,1.51,-35.73,2.81
2019-02-11 03:00,10.80,329.9,1.70,-5.42,9.34,-35.53,4.84
2019-02-11 05:00,,,,,,,
2019-02-11 07:00,23.45,254.7,1.35,-22.62,-6.19,-21.50,3.69
2019-02-11 08:00,18.58,210.4,1.44,-9.40,-16.03,-31.43,4.80
2019-02-11 09:00,25.10,188.2,1.40,-3.58,-24.84,-25.80,7.51
2019-02-11 10:00,24.43,183.9,1.53,-1.66,-24.37,-33.08,7.23
2019-02-11 11:00,38.84,176.9,1.47,2.10,-38.78,-29.48,9.36
2019-02-11 12:00,29.06,182.3,1.64,-1.17,-29.04,-25.55,8.86
2019-02-11 13:00,19.92,187.4,1.70,-2.57,-19.75,-33.96,7.38
2019-02-11 14:00,21.61,204.6,1.63,-9.00,-19.65,-34.37,5.77
2019-02-11 15:00,11.58,265.7,1.73,-11.55,-0.87,-25.89,5.92
2019-02-11 16:00,,,,,,,
2019-02-11 18:00,,,,,,,
2019-02-11 19:00,,,,,,,
2019-02-11 20:00,21.59,200.9,2.00,-7.70,-20.17,-31.18,9.35
2019-02-11 21:00,28.79,197.2,2.02,-8.51,-27.50,-24.32,10.15
2019-02-11 22:00,33.06,198.6,1.91,-10.54,-31.33,-33.52,10.75
2019-02-11 23:00,41.92,178.0,1.89,1.46,-41.89,-21.40,13.08
2019-02-12 00:00,42.54,188.1,1.76,-5.99,-42.12,-25.99,12.33
2019-02-12 02:00,34.01,199.2,1.80,-11.18,-32.12,-23.95,13.99
2019-02-12 03:00,21.00,196.9,1.76,-6.10,-20.09,-21.73,10.90
2019-02-12 04:00,15.34,231.6,1.90,-12.02,-9.53,-15.22,12.29
2019-02-12 05:00,4.85,311.1,1.96,-3.66,3.19,-17.17,10.11
2019-02-12 06:00,27.65,302.1,2.08,-23.42,14.69,-21.00,6.40
2019-02-12 07:00,18.74,322.7,2.13,-11.36,14.91,-24.70,7.12
2019-02-12 08:00,22.86,269.9,1.93,-22.86,-0.04,-27.29,6.20
2019-02-12 09:00,24.87,250.3,1.84,-23.41,-8.38,-22.63,7.98
2019-02-12 10:00,26.17,191.6,1.78,-5.26,-25.64,-25.98,10.55
2019-02-12 11:00,26.95,203.0,1.87,-10.53,-24.81,-12.05,11.18
2019-02-12 12:00,39.81,203.8,1.83,-16.07,-36.42,-16.18,13.69
2019-02-12 13:00,37.26,210.4,1.93,-18.85,-32.14,-20.83,13.83
2019-02-12 14:00,34.92,197.8,1.91,-10.67,-33.25,-26.09,13.64
2019-02-12 15:00,25.37,216.0,1.91,-14.91,-20.52,-14.12,10.74
2019-02-12 16:00,20.27,236.1,1.93,-16.82,-11.31,-31.70,8.28
2019-02-12 17:00,19.16,233.1,1.95,-15.32,-11.50,-28.85,7.24
2019-02-12 18:00,27.90,305.1,2.17,-22.83,16.04,-28.28,4.09
2019-02-12 19:00,18.84,347.5,2.14,-4.07,18.39,-33.09,1.34
2019-02-12 20:00,29.82,324.8,2.00,-17.19,24.37,-34.55,3.93
2019-02-13 12:00,41.29,206.3,1.96,-18.29,-37.02,-13.23,17.58
2019-02-13 14:00,27.62,212.9,1.82,-15.00,-23.19,-6.20,19.22
2019-02-13 15:00,54.54,187.6,1.20,-7.21,-54.06,-10.88,20.31
2019-02-13 16:00,41.55,199.4,1.19,-13.80,-39.19,-12.18,16.90
2019-02-13 17:00,25.23,209.4,1.41,-12.39,-21.98,-16.64,14.30
2019-02-13 18:00,17.55,222.4,1.68,-11.83,-12.96,-14.04,12.54
2019-02-13 19:00,40.85,184.5,1.52,-3.21,-40.72,-8.96,16.85
2019-02-13 21:00,41.98,176.2,1.29,2.78,-41.89,-29.40,13.46
2019-02-13 22:00,,,,,,,
2019-02-14 01:00,57.55,195.7,1.05,-15.57,-55.40,-38.53,10.92
2019-02-14 02:00,45.33,195.7,1.17,-12.27,-43.64,-38.27,9.35
2019-02-14 03:00,,,,,,,
2019-02-14 04:00,32.74,190.3,1.02,-5.85,-32.21,-38.14,7.01
2019-02-14 05:00,28.89,173.5,0.85,3.27,-28.70,-38.73,5.99
2019-02-14 06:00,20.36,208.1,1.10,-9.59,-17.96,-36.78,3.69
2019-02-14 07:00,13.55,179.1,0.88,0.21,-13.55,-36.95,4.20
2019-02-14 08:00,18.44,213.2,1.07,-10.10,-15.43,-35.07,4.11
2019-02-14 09:00,21.38,189.7,1.12,-3.60,-21.07,-28.60,7.04
2019-02-14 10:00,26.89,181.1,1.10,-0.52,-26.89,-29.65,8.36
2019-02-14 11:00,33.31,181.9,0.97,-1.10,-33.29,-28.49,10.12
2019-02-14 12:00,49.21,180.7,0.98,-0.60,-49.21,-25.85,10.70
2019-02-14 13:00,47.08,178.9,0.98,0.90,-47.07,-24.71,10.81
2019-02-14 14:00,48.53,174.1,0.95,4.99,-48.27,-24.24,13.42
2019-02-14 15:00,50.89,171.2,0.90,7.79,-50.29,-18.93,15.12
2019-02-14 16:00,40.29,170.8,0.92,6.44,-39.77,-26.34,11.66
2019-02-14 17:00,28.72,183.3,0.95,-1.65,-28.67,-31.22,10.78
2019-02-14 18:00,20.16,199.7,1.01,-6.80,-18.98,-26.08,10.55
2019-02-14 19:00,17.63,222.4,1.05,-11.89,-13.02,-18.19,10.60
2019-02-14 20:00,14.71,207.0,1.10,-6.68,-13.11,-28.26,7.32
2019-02-14 21:00,10.52,189.0,1.14,-1.65,-10.39,-24.69,7.05
2019-02-14 22:00,18.07,184.3,1.17,-1.35,-18.02,-25.47,6.98
2019-02-14 23:00,30.49,185.9,1.11,-3.13,-30.33,-33.75,7.08
2019-02-15 00:00,35.49,181.6,1.03,-0.99,-35.48,-35.45,6.94
2019-02-15 03:00,38.12,189.0,0.98,-5.96,-37.65,-38.69,6.28
2019-02-15 04:00,26.65,203.5,1.01,-10.63,-24.44,-37.60,5.46
2019-02-15 05:00,18.82,213.4,1.03,-10.36,-15.71,-37.76,3.64
2019-02-15 06:00,11.64,254.7,1.20,-11.23,-3.07,-36.34,3.84
2019-02-15 07:00,,,,,,,
2019-02-15 08:00,19.42,326.6,1.23,-10.69,16.21,-32.88,5.01
2019-02-15 09:00,20.76,345.8,1.37,-5.10,20.12,-30.81,4.97
2019-02-15 10:00,13.38,320.8,1.47,-8.46,10.37,-24.87,7.31
2019-02-15 11:00,9.59,274.7,1.46,-9.56,0.79,-22.22,8.91
2019-02-15 12:00,10.48,190.2,1.41,-1.86,-10.31,-26.20,8.46
2019-02-15 13:00,14.52,193.2,1.51,-3.32,-14.14,-23.18,9.20
2019-02-15 14:00,19.30,191.9,1.55,-3.98,-18.89,-21.60,9.81
2019-02-15 15:00,,,,,,,
2019-02-15 16:00,5.66,168.3,1.49,1.15,-5.55,-21.60,11.45
2019-02-15 17:00,,,,,,,
2019-02-15 18:00,12.50,3.1,1.45,0.68,12.48,-17.84,10.95
2019-02-15 19:00,19.48,307.8,1.49,-15.39,11.94,-11.03,14.97
2019-02-15 20:00,41.38,353.7,1.59,-4.54,41.13,-3.78,16.32
2019-02-15 21:00,30.72,352.1,1.70,-4.23,30.43,-12.19,13.91
2019-02-15 22:00,30.27,25.3,1.72,12.95,27.36,-23.06,10.90
2019-02-15 23:00,17.05,47.5,1.60,12.58,11.51,-16.57,11.35
2019-02-16 00:00,16.23,56.5,1.57,13.53,8.97,-6.39,10.25
2019-02-16 01:00,9.02,84.4,1.57,8.98,0.88,-19.61,9.71
2019-02-16 02:00,22.14,138.1,1.55,14.79,-16.48,-28.06,8.09
2019-02-16 03:00,21.50,131.4,1.52,16.13,-14.22,-25.47,7.97
2019-02-16 04:00,22.12,115.7,1.46,19.93,-9.59,-33.41,6.76
2019-02-16 05:00,23.58,108.5,1.46,22.36,-7.48,-29.03,8.46
2019-02-16 06:00,13.80,95.6,1.37,13.73,-1.35,-31.27,6.64
2019-02-16 07:00,,,,,,,
2019-02-16 08:00,,,,,,,
2019-02-16 09:00,14.76,27.4,1.46,6.79,13.10,-33.88,5.08
2019-02-16 10:00,7.23,351.5,1.53,-1.07,7.15,-32.09,4.25
2019-02-16 11:00,4.38,292.9,1.50,-4.04,1.71,-31.82,3.99
2019-02-16 14:00,28.11,193.8,1.61,-6.71,-27.30,-28.86,7.73
2019-02-16 15:00,43.61,182.5,1.54,-1.90,-43.57,-32.71,10.32
2019-02-16 16:00,43.20,193.5,1.50,-10.08,-42.01,-32.68,10.37
2019-02-16 17:00,29.81,214.1,1.55,-16.71,-24.68,-32.68,8.65
2019-02-16 18:00,,,,,,,
2019-02-16 19:00,13.30,190.8,1.55,-2.49,-13.06,-26.65,7.45
2019-02-16 20:00,4.99,232.1,1.60,-3.94,-3.07,-31.54,5.85
2019-02-16 21:00,5.26,306.1,1.67,-4.25,3.10,-28.48,4.01
2019-02-16 22:00,5.34,341.5,1.71,-1.69,5.06,-24.95,7.44
2019-02-16 23:00,2.69,219.9,1.77,-1.73,-2.07,-25.48,7.62
2019-02-17 00:00,14.44,148.6,1.73,7.52,-12.33,-22.96,10.10
2019-02-17 01:00,21.68,174.3,1.75,2.15,-21.57,-29.31,9.65
2019-02-17 02:00,41.33,190.6,1.73,-7.60,-40.62,-24.21,11.93
2019-02-17 03:00,42.10,189.9,1.66,-7.24,-41.47,-21.05,12.06
2019-02-17 04:00,49.24,186.1,1.54,-5.23,-48.96,-32.67,11.84
2019-02-17 05:00,47.62,182.5,1.30,-2.08,-47.57,-36.16,11.03
2019-02-17 06:00,34.97,187.9,1.21,-4.81,-34.64,-36.10,6.91
2019-02-17 07:00,18.86,198.2,1.09,-5.89,-17.92,-32.26,7.03
2019-02-17 08:00,13.36,200.1,1.12,-4.59,-12.55,-28.40,7.07
2019-02-17 10:00,5.54,283.5,1.35,-5.39,1.29,-25.78,5.18
2019-02-17 12:00,,,,,,,
2019-02-17 13:00,13.77,331.2,1.84,-6.63,12.07,-21.97,5.86
2019-02-17 14:00,15.78,158.4,1.72,5.81,-14.67,-24.24,6.73
2019-02-17 15:00,,,,,,,
2019-02-17 16:00,63.54,180.1,1.46,-0.11,-63.54,-35.11,13.45
2019-02-17 17:00,55.45,192.6,1.52,-12.10,-54.11,-37.64,10.64
2019-02-17 18:00,40.52,189.1,1.46,-6.41,-40.01,-37.79,7.73
2019-02-17 19:00,32.57,192.3,1.47,-6.94,-31.82,-35.93,4.46
2019-02-17 20:00,16.24,194.3,1.42,-4.01,-15.74,-35.70,1.49
2019-02-17 21:00,10.06,238.9,1.42,-8.61,-5.20,-34.35,2.79
2019-02-17 22:00,6.48,269.2,1.44,-6.48,-0.09,-35.12,1.44
2019-02-17 23:00,11.71,330.7,1.48,-5.73,10.21,-34.84,1.66
2019-02-18 00:00,2.07,124.3,1.44,1.71,-1.16,-36.86,1.27
2019-02-18 01:00,20.68,157.8,1.42,7.81,-19.15,-36.35,2.77
2019-02-18 03:00,52.98,189.7,1.15,-8.93,-52.22,-37.10,9.46
2019-02-18 04:00,52.19,184.6,1.30,-4.19,-52.02,-36.50,10.65
2019-02-18 05:00,51.45,180.8,1.21,-0.72,-51.44,-35.62,10.76
2019-02-18 06:00,,,,,,,
2019-02-18 07:00,36.95,189.0,1.02,-5.78,-36.50,-35.42,10.33
2019-02-18 08:00,26.97,200.5,1.11,-9.45,-25.26,-35.78,7.74
2019-02-18 09:00,20.01,234.7,1.13,-16.33,-11.56,-32.49,7.66
2019-02-18 12:00,42.16,324.6,1.88,-24.42,34.37,-25.57,8.59
2019-02-18 13:00,14.06,107.8,1.57,13.39,-4.30,-29.30,7.41
2019-02-18 14:00,18.62,158.4,1.73,6.85,-17.31,-29.51,8.33
2019-02-18 16:00,64.80,186.2,1.43,-7.00,-64.42,-29.60,15.80
2019-02-18 17:00,61.35,176.7,1.35,3.53,-61.25,-30.88,15.76
2019-02-18 18:00,60.85,177.4,1.48,2.76,-60.79,-21.73,17.15
2019-02-18 19:00,68.45,172.1,1.17,9.41,-67.80,-23.08,17.50
2019-02-18 20:00,52.32,168.6,0.85,10.34,-51.29,-28.92,16.68
2019-02-18 21:00,,,,,,,
2019-02-18 22:00,20.18,214.0,1.17,-11.28,-16.73,-30.62,8.39
2019-02-18 23:00,5.99,262.2,1.20,-5.93,-0.81,-31.56,5.71
2019-02-19 00:00,13.13,23.3,1.21,5.19,12.06,-29.59,5.17
2019-02-19 01:00,14.38,113.0,1.27,13.24,-5.62,-35.45,6.27
2019-02-19 02:00,24.21,151.6,1.26,11.51,-21.30,-35.98,8.61
2019-02-19 03:00,34.38,164.4,1.26,9.25,-33.11,-35.86,8.13
2019-02-19 04:00,61.75,183.3,1.33,-3.55,-61.65,-28.10,15.07
2019-02-19 05:00,76.60,183.0,1.28,-4.01,-76.50,-26.19,17.66
2019-02-19 06:00,76.54,180.5,1.21,-0.67,-76.54,-32.08,17.76
2019-02-19 07:00,71.89,182.3,1.09,-2.89,-71.83,-24.07,17.67
2019-02-19 08:00,57.94,185.3,0.93,-5.35,-57.69,-30.22,15.00
2019-02-19 09:00,45.87,190.6,0.91,-8.44,-45.09,-27.80,13.92
2019-02-19 10:00,,,,,,,
2019-02-19 11:00,16.54,162.4,0.85,5.00,-15.77,-33.80,9.22
2019-02-19 12:00,5.34,132.3,0.87,3.95,-3.59,-35.70,4.99
2019-02-19 13:00,9.16,109.2,1.19,8.65,-3.01,-29.69,7.08
2019-02-19 14:00,24.46,171.4,1.24,3.66,-24.18,-30.45,12.10
2019-02-19 15:00,38.50,165.8,1.39,9.44,-37.32,-18.30,16.78
2019-02-19 16:00,57.27,182.7,1.21,-2.70,-57.21,-23.92,17.64
2019-02-19 17:00,71.99,174.9,1.22,6.40,-71.70,-31.16,15.83
2019-02-19 18:00,77.80,174.9,1.18,6.92,-77.49,-29.39,16.71
2019-02-19 19:00,69.54,174.5,1.14,6.67,-69.22,-29.76,16.17
2019-02-19 20:00,56.92,185.4,1.16,-5.36,-56.67,-18.57,14.71
2019-02-19 21:00,48.81,166.8,1.11,11.15,-47.52,-34.20,10.80
2019-02-19 22:00,35.47,176.6,1.02,2.10,-35.41,-26.63,10.97
2019-02-19 23:00,24.12,149.5,0.94,12.24,-20.78,-29.78,11.37
2019-02-20 00:00,20.19,134.8,0.68,14.33,-14.23,-36.99,8.63
2019-02-20 01:00,4.27,135.0,0.89,3.02,-3.02,-28.97,7.47
2019-02-20 02:00,11.88,127.4,1.03,9.44,-7.22,-23.43,9.05
2019-02-20 03:00,30.60,162.7,1.04,9.10,-29.22,-30.28,11.04
2019-02-20 04:00,51.57,171.8,0.83,7.36,-51.04,-30.74,11.40
2019-02-20 05:00,58.62,174.2,0.88,5.92,-58.32,-35.67,11.40
2019-02-20 06:00,68.98,165.6,1.01,17.15,-66.81,-36.95,12.87
2019-02-20 07:00,68.77,175.0,0.84,5.99,-68.51,-38.30,12.30
2019-02-20 08:00,51.12,175.2,0.98,4.28,-50.94,-37.66,8.69
2019-02-20 09:00,26.99,163.0,0.79,7.89,-25.81,-39.11,4.74
2019-02-20 10:00,31.21,143.7,0.80,18.48,-25.15,-34.84,5.78
2019-02-20 11:00,21.85,149.3,0.39,11.16,-18.79,-38.18,5.14
2019-02-20 12:00,10.88,94.6,0.58,10.84,-0.87,-35.26,3.32
2019-02-20 13:00,13.60,31.2,0.90,7.04,11.63,-37.21,2.34
2019-02-20 14:00,4.74,351.1,0.89,-0.73,4.68,-35.93,2.49
2019-02-20 15:00,23.71,181.9,0.92,-0.79,-23.70,-36.39,5.42
2019-02-20 16:00,28.40,163.2,1.06,8.21,-27.19,-38.76,4.21
2019-02-20 17:00,41.20,166.9,0.96,9.34,-40.13,-37.86,5.77
2019-02-20 18:00,63.05,170.7,0.95,10.19,-62.22,-36.19,10.60
2019-02-20 19:00,67.77,174.1,0.83,6.97,-67.41,-37.92,11.14
2019-02-20 20:00,64.12,179.6,0.83,0.45,-64.12,-32.83,10.63
2019-02-20 21:00,47.47,153.2,0.69,21.40,-42.37,-37.56,6.75
2019-02-20 22:00,29.61,149.1,0.71,15.21,-25.41,-37.67,4.55
2019-02-20 23:00,8.27,211.8,1.08,-4.36,-7.03,-35.35,1.38
2019-02-21 00:00,11.79,83.7,0.63,11.72,1.29,-37.42,2.86
2019-02-21 01:00,16.20,22.1,1.02,6.11,15.01,-37.78,3.55
2019-02-21 02:00,,,,,,,
2019-02-21 03:00,17.63,37.5,1.32,10.74,13.98,-34.36,2.31
2019-02-21 04:00,21.41,184.1,0.99,-1.53,-21.36,-36.80,1.85
2019-02-21 05:00,24.67,187.4,1.17,-3.18,-24.46,-36.37,1.87
2019-02-21 06:00,32.08,182.9,1.09,-1.62,-32.04,-29.36,2.67
2019-02-21 07:00,53.86,178.2,1.08,1.69,-53.83,-33.31,7.18
2019-02-21 08:00,47.95,179.6,1.21,0.33,-47.95,-30.02,6.80
2019-02-21 09:00,37.41,205.7,0.83,-16.22,-33.71,-12.10,6.89
2019-02-21 10:00,6.27,232.7,0.93,-4.99,-3.80,-29.84,6.28
2019-02-21 11:00,8.73,354.1,0.82,-0.89,8.68,-28.36,6.99
2019-02-21 13:00,26.36,352.8,1.38,-3.31,26.15,-28.22,7.50
2019-02-21 14:00,46.10,342.4,1.28,-13.94,43.94,-33.15,11.92
2019-02-21 15:00,32.17,11.2,1.25,6.22,31.56,-31.81,9.66
2019-02-21 17:00,15.76,128.5,1.38,12.33,-9.81,-34.46,5.71
2019-02-21 18:00,17.81,148.7,1.39,9.25,-15.22,-34.86,4.29
2019-02-21 19:00,43.53,167.7,1.33,9.27,-42.53,-33.13,6.92
2019-02-21 20:00,53.10,169.2,1.38,9.95,-52.16,-34.81,7.78
2019-02-21 21:00,46.86,183.3,1.29,-2.70,-46.78,-34.80,6.50
2019-02-21 22:00,45.22,125.5,1.11,36.81,-26.26,-35.80,7.28
2019-02-21 23:00,21.26,162.1,1.08,6.53,-20.23,-31.65,4.77
2019-02-22 00:00,7.93,150.7,1.05,3.88,-6.92,-35.25,6.08
2019-02-22 01:00,8.00,357.6,1.06,-0.33,7.99,-34.98,3.67
2019-02-22 02:00,22.94,340.9,1.14,-7.51,21.68,-35.73,4.97
2019-02-22 03:00,29.64,3.1,1.21,1.62,29.60,-36.43,6.34
2019-02-22 04:00,23.72,335.3,1.45,-9.91,21.55,-34.16,4.90
2019-02-22 05:00,17.11,166.8,1.25,3.91,-16.66,-30.75,5.69
2019-02-22 06:00,36.76,191.5,1.23,-7.33,-36.02,-37.12,7.91
2019-02-22 07:00,,,,,,,
2019-02-22 08:00,61.74,183.5,1.33,-3.77,-61.62,-28.56,14.91
2019-02-22 09:00,,,,,,,
2019-02-22 10:00,57.28,187.8,1.06,-7.77,-56.75,-34.70,14.79
2019-02-22 12:00,18.64,200.5,1.12,-6.53,-17.46,-25.45,8.69
2019-02-22 13:00,12.33,255.1,1.26,-11.92,-3.17,-31.99,6.76
2019-02-22 14:00,12.44,312.0,1.39,-9.24,8.32,-36.10,3.09
2019-02-22 15:00,20.65,333.8,1.57,-9.12,18.53,-32.63,4.55
2019-02-22 16:00,37.51,323.1,1.74,-22.52,30.00,-29.76,4.36
2019-02-22 17:00,16.27,306.3,1.80,-13.11,9.63,-30.30,2.94
2019-02-22 18:00,12.14,276.5,1.89,-12.06,1.37,-29.16,2.61
2019-02-22 19:00,,,,,,,
2019-02-22 20:00,54.63,177.1,1.71,2.76,-54.56,-32.34,10.79
2019-02-22 21:00,56.96,175.7,1.55,4.27,-56.80,-33.09,11.19
2019-02-22 22:00,65.76,174.9,1.49,5.85,-65.50,-34.93,13.31
2019-02-22 23:00,39.40,174.7,1.39,3.64,-39.23,-36.36,7.75
2019-02-23 00:00,24.59,175.1,1.35,2.10,-24.50,-35.76,7.44
2019-02-23 01:00,18.38,210.9,1.30,-9.44,-15.77,-34.31,5.55
2019-02-23 02:00,6.66,217.2,1.30,-4.03,-5.31,-35.31,5.08
2019-02-23 03:00,,,,,,,
2019-02-23 04:00,32.47,316.8,1.67,-22.23,23.67,-19.24,5.40
2019-02-23 05:00,19.49,295.8,1.75,-17.55,8.48,-20.20,5.23
2019-02-23 07:00,,,,,,,
2019-02-23 09:00,60.14,180.6,1.19,-0.63,-60.14,-33.87,10.68
2019-02-23 10:00,46.29,180.4,1.28,-0.32,-46.29,-33.76,7.75
2019-02-23 11:00,36.61,169.0,1.27,6.99,-35.94,-37.49,5.93
2019-02-23 12:00,25.92,162.1,1.22,7.97,-24.67,-39.71,3.90
2019-02-23 13:00,16.03,190.8,1.18,-3.00,-15.75,-38.62,2.92
2019-02-23 14:00,2.96,340.8,1.23,-0.97,2.79,-32.15,3.73
2019-02-23 15:00,9.76,306.8,1.32,-7.82,5.85,-37.87,2.69
2019-02-23 16:00,4.21,108.6,1.50,3.99,-1.34,-35.17,2.34
2019-02-23 17:00,11.97,78.6,1.61,11.73,2.37,-34.57,2.12
2019-02-23 19:00,31.63,190.8,1.61,-5.93,-31.07,-34.09,6.16
2019-02-23 20:00,34.25,192.9,1.65,-7.65,-33.39,-32.33,6.62
2019-02-23 21:00,,,,,,,
2019-02-23 22:00,,,,,,,
2019-02-23 23:00,51.15,171.6,1.50,7.47,-50.60,-37.95,8.85
2019-02-24 00:00,27.15,173.6,1.46,3.03,-26.98,-38.86,4.04
2019-02-24 01:00,12.84,183.1,1.38,-0.69,-12.82,-38.82,1.60
2019-02-24 02:00,7.74,261.0,1.38,-7.64,-1.21,-38.35,1.77
2019-02-24 03:00,13.82,334.2,1.37,-6.01,12.44,-38.48,2.56
2019-02-24 04:00,14.39,334.6,1.44,-6.17,13.00,-35.13,2.80
2019-02-24 05:00,12.45,18.6,1.43,3.96,11.80,-37.68,2.77
2019-02-24 06:00,12.92,160.3,1.42,4.36,-12.16,-36.73,1.47
2019-02-24 07:00,18.46,181.3,1.48,-0.42,-18.46,-36.88,3.17
2019-02-24 08:00,29.38,188.9,1.46,-4.55,-29.03,-36.99,4.43
2019-02-24 09:00,46.82,168.2,1.44,9.57,-45.83,-33.49,7.54
2019-02-24 10:00,47.10,179.6,1.43,0.33,-47.10,-32.66,7.85
2019-02-24 11:00,40.06,178.3,1.43,1.19,-40.04,-32.30,7.48
2019-02-24 12:00,28.13,190.3,1.40,-5.03,-27.68,-20.64,7.74
2019-02-24 13:00,17.19,214.7,1.45,-9.79,-14.13,-25.36,10.09
2019-02-24 14:00,15.45,273.5,1.44,-15.42,0.94,-18.64,11.51
2019-02-24 15:00,26.72,295.4,1.47,-24.14,11.46,-14.03,15.44
2019-02-24 16:00,36.81,333.9,1.53,-16.19,33.06,-22.48,15.23
2019-02-24 17:00,35.01,330.6,1.65,-17.19,30.50,-15.68,14.29
2019-02-24 18:00,23.58,4.0,1.67,1.66,23.52,-11.91,14.92
2019-02-24 20:00,12.49,268.4,1.71,-12.49,-0.35,-0.29,15.00
2019-02-24 21:00,,,,,,,
2019-02-24 22:00,34.82,197.9,1.78,-10.70,-33.13,-8.80,16.69
2019-02-24 23:00,29.91,208.9,1.79,-14.45,-26.19,-9.38,15.80
2019-02-25 00:00,23.75,205.6,1.83,-10.26,-21.42,-28.42,9.98
2019-02-25 01:00,,,,,,,
2019-02-25 02:00,3.92,310.4,1.77,-2.99,2.54,-12.76,12.89
2019-02-25 03:00,4.56,83.4,1.69,4.53,0.52,-22.92,8.46
2019-02-25 04:00,15.77,33.7,1.72,8.75,13.12,-11.35,11.60
2019-02-25 05:00,,,,,,,
2019-02-25 06:00,17.95,99.5,1.66,17.70,-2.96,-26.05,10.03
2019-02-25 07:00,22.71,142.3,1.61,13.89,-17.97,-28.64,8.80
2019-02-25 08:00,32.91,168.1,1.62,6.79,-32.20,-30.23,7.51
2019-02-25 09:00,39.13,180.0,1.59,-0.00,-39.13,-24.85,9.78
2019-02-25 10:00,57.40,184.5,1.53,-4.50,-57.22,-30.40,10.05
2019-02-25 11:00,,,,,,,
2019-02-25 12:00,55.85,180.1,1.53,-0.10,-55.85,-21.56,11.55
2019-02-25 13:00,49.63,173.3,1.43,5.79,-49.29,-21.46,12.49
2019-02-25 14:00,36.20,145.7,1.39,20.40,-29.90,-16.25,11.58
2019-02-25 15:00,15.83,151.6,1.40,7.53,-13.92,-30.06,8.59
2019-02-25 16:00,20.01,128.1,1.42,15.75,-12.35,-20.66,11.81
2019-02-25 17:00,14.04,82.5,1.45,13.92,1.83,-10.46,12.65
2019-02-25 18:00,15.41,75.0,1.54,14.88,3.99,-5.43,15.72
2019-02-25 19:00,,,,,,,
2019-02-25 20:00,19.97,132.5,1.59,14.72,-13.49,-4.43,14.98
2019-02-25 21:00,36.33,168.2,1.63,7.43,-35.56,-10.35,15.79
2019-02-25 22:00,39.26,173.5,1.63,4.44,-39.01,-15.82,13.32
2019-02-25 23:00,57.02,173.1,1.59,6.85,-56.61,-8.80,20.59
2019-02-26 00:00,52.49,169.2,1.58,9.84,-51.56,-2.76,21.13
2019-02-26 01:00,45.06,163.1,1.61,13.10,-43.11,-8.53,21.20
2019-02-26 02:00,39.93,156.8,1.56,15.73,-36.70,-4.79,20.06
2019-02-26 03:00,28.00,184.0,1.55,-1.95,-27.93,-14.95,18.12
2019-02-26 04:00,15.76,197.1,1.53,-4.63,-15.06,-7.09,16.45
2019-02-26 05:00,10.06,35.5,1.54,5.83,8.20,-3.97,16.24
2019-02-26 06:00,13.91,101.8,1.51,13.62,-2.84,-7.02,15.00
2019-02-26 07:00,22.64,316.9,1.55,-15.47,16.53,-10.94,13.43
2019-02-26 09:00,13.34,179.8,1.52,0.05,-13.34,-14.82,12.03
2019-02-26 10:00,24.91,186.3,1.49,-2.73,-24.76,-18.69,13.18
2019-02-26 11:00,27.65,187.9,1.48,-3.80,-27.39,-21.05,10.85
2019-02-26 12:00,39.27,187.7,1.47,-5.26,-38.92,-21.53,12.59
2019-02-26 13:00,42.28,183.5,1.44,-2.58,-42.20,-15.92,15.58
2019-02-26 14:00,29.58,182.7,1.51,-1.39,-29.55,-14.36,12.00
2019-02-26 15:00,13.95,205.0,1.52,-5.90,-12.64,-23.72,8.47
2019-02-26 16:00,17.45,251.0,1.52,-16.50,-5.68,-11.86,13.14
2019-02-26 17:00,3.00,155.2,1.56,1.26,-2.72,-15.62,6.90
2019-02-26 18:00,7.35,313.3,1.57,-5.35,5.04,-17.00,8.82
2019-02-26 19:00,15.83,113.6,1.59,14.51,-6.34,-4.58,14.96
2019-02-26 20:00,3.16,45.8,1.58,2.26,2.21,-10.60,14.30
2019-02-26 21:00,8.39,222.5,1.63,-5.67,-6.19,-1.09,11.46
2019-02-26 22:00,22.65,169.4,1.58,4.17,-22.26,-5.05,14.38
2019-02-26 23:00,20.18,197.5,1.52,-6.07,-19.25,-20.26,12.55
2019-02-27 00:00,37.50,165.9,1.50,9.14,-36.37,-12.77,16.59
2019-02-27 01:00,35.85,166.8,1.53,8.19,-34.90,-10.92,15.17
2019-02-27 02:00,36.95,162.1,1.49,11.36,-35.16,-10.56,16.16
2019-02-27 03:00,22.90,159.2,1.46,8.13,-21.41,-14.14,14.26
2019-02-27 04:00,14.59,167.3,1.46,3.21,-14.23,-22.88,13.74
2019-02-27 05:00,6.33,134.9,1.46,4.48,-4.47,-8.32,16.89
2019-02-27 06:00,2.97,124.3,1.42,2.46,-1.68,-2.45,12.79
2019-02-27 07:00,23.54,335.3,1.48,-9.84,21.39,-19.14,8.79
2019-02-27 08:00,35.21,352.3,1.46,-4.69,34.90,-11.04,9.54
2019-02-27 09:00,20.82,279.7,1.30,-20.52,3.51,-26.11,8.28
2019-02-27 10:00,31.11,247.4,1.17,-28.72,-11.96,-24.93,4.29
2019-02-27 11:00,,,,,,,
2019-02-27 12:00,29.26,200.8,1.21,-10.39,-27.35,-25.28,7.05
2019-02-27 13:00,28.92,171.0,1.29,4.52,-28.56,-29.19,9.13
2019-02-27 14:00,24.15,182.6,1.34,-1.10,-24.13,-29.48,7.96
2019-02-27 15:00,22.10,182.5,1.34,-0.96,-22.08,-27.04,7.26
2019-02-27 16:00,16.71,177.6,1.33,0.70,-16.70,-30.70,5.56
2019-02-27 17:00,4.82,286.4,1.34,-4.63,1.36,-25.68,6.46
2019-02-27 18:00,3.29,2.4,1.38,0.14,3.29,-23.49,6.16
2019-02-27 19:00,,,,,,,
2019-02-27 20:00,5.80,141.8,1.29,3.58,-4.55,-27.59,4.84
2019-02-27 22:00,,,,,,,
2019-02-28 00:00,24.62,194.0,1.25,-5.96,-23.89,-31.42,5.18
2019-02-28 01:00,30.11,179.5,1.30,0.26,-30.11,-32.29,6.54
2019-02-28 02:00,36.47,186.5,1.27,-4.13,-36.24,-32.31,7.13
2019-02-28 03:00,37.01,186.0,1.19,-3.87,-36.81,-34.08,7.44
2019-02-28 04:00,25.85,214.9,1.05,-14.79,-21.20,-35.35,5.60
2019-02-28 05:00,19.77,224.9,1.12,-13.96,-14.00,-34.09,4.80
2019-02-28 06:00,12.92,226.2,1.09,-9.33,-8.94,-34.18,4.29
2019-02-28 07:00,14.31,261.0,1.19,-14.13,-2.24,-31.31,5.09
2019-02-28 08:00,21.22,248.5,0.97,-19.74,-7.78,-23.92,5.81
2019-02-28 09:00,20.74,303.5,0.96,-17.29,11.45,-17.60,4.89
2019-02-28 10:00,26.22,310.0,1.09,-20.09,16.85,-29.89,3.78
2019-02-28 11:00,9.85,296.9,1.11,-8.78,4.46,-28.97,3.97
2019-02-28 12:00,16.72,157.2,1.17,6.48,-15.41,-32.36,6.33
2019-02-28 13:00,13.46,202.8,1.09,-5.22,-12.41,-32.47,6.09
2019-02-28 14:00,23.56,170.3,1.35,3.97,-23.22,-32.06,6.72
2019-02-28 15:00,36.46,174.8,1.07,3.30,-36.31,-34.58,6.53
2019-02-28 16:00,32.81,194.3,1.25,-8.10,-31.79,-34.45,4.86
2019-02-28 17:00,20.49,231.4,1.13,-16.01,-12.78,-33.99,2.51
2019-02-28 18:00,16.04,211.0,1.46,-8.26,-13.75,-31.84,3.57
2019-02-28 19:00,,,,,,,
2019-02-28 20:00,10.62,286.7,1.42,-10.17,3.05,-31.34,3.81
2019-02-28 21:00,14.96,236.3,1.39,-12.45,-8.30,-32.30,5.50
2019-02-28 22:00,17.80,280.7,1.36,-17.49,3.30,-28.36,3.60